This is the latest recevied weather packets stored in our database for station/object N0FDH. If no packets are shown the sender has not sent any weather packets the latest 10 day(s).
| Time | Temp. | Humidity | Pressure | Rain* | Wind** | Luminosity | Snow |
|---|---|---|---|---|---|---|---|
| 1777693198 | 3.33° C | 61% | 1018.3 hPa | 0 mm | - | 0 W/m² | - |
| 1777692895 | 3.89° C | 59% | 1018.3 hPa | 0 mm | - | 0 W/m² | - |
| 1777692591 | 3.89° C | 56% | 1018.2 hPa | 0 mm | - | 0 W/m² | - |
| 1777692288 | 3.89° C | 56% | 1018.3 hPa | 0 mm | - | 0 W/m² | - |
| 1777691985 | 3.89° C | 55% | 1018.1 hPa | 0 mm | - | 0 W/m² | - |
| 1777691684 | 4.44° C | 54% | 1018.2 hPa | 0 mm | - | 0 W/m² | - |
| 1777691381 | 4.44° C | 54% | 1018.3 hPa | 0 mm | - | 0 W/m² | - |
| 1777691079 | 4.44° C | 57% | 1018.3 hPa | 0 mm | - | 0 W/m² | - |
| 1777690777 | 5° C | 53% | 1018.2 hPa | 0 mm | - | 0 W/m² | - |
| 1777690474 | 5° C | 53% | 1018.2 hPa | 0 mm | - | 0 W/m² | - |
| 1777690171 | 5° C | 52% | 1018.2 hPa | 0 mm | - | 0 W/m² | - |
| 1777689870 | 5.56° C | 50% | 1018.3 hPa | 0 mm | - | 0 W/m² | - |
| 1777689568 | 5.56° C | 48% | 1018.3 hPa | 0 mm | - | 0 W/m² | - |
| 1777689265 | 6.11° C | 47% | 1018.2 hPa | 0 mm | - | 0 W/m² | - |
| 1777688962 | 6.11° C | 46% | 1018.2 hPa | 0 mm | - | 0 W/m² | - |
| 1777688658 | 6.11° C | 45% | 1018.2 hPa | 0 mm | - | 0 W/m² | - |
| 1777688355 | 6.67° C | 45% | 1018 hPa | 0 mm | - | 0 W/m² | - |
| 1777688053 | 6.67° C | 46% | 1018 hPa | 0 mm | - | 0 W/m² | - |
| 1777687750 | 7.22° C | 50% | 1017.9 hPa | 0 mm | - | 0 W/m² | - |
| 1777687448 | 7.22° C | 47% | 1018.1 hPa | 0 mm | - | 0 W/m² | - |
| 1777687144 | 7.22° C | 46% | 1017.9 hPa | 0 mm | - | 0 W/m² | - |
| 1777686841 | 7.78° C | 45% | 1017.9 hPa | 0 mm | - | 0 W/m² | - |
| 1777686538 | 7.78° C | 48% | 1017.8 hPa | 0 mm | - | 0 W/m² | - |
| 1777686235 | 7.78° C | 43% | 1017.9 hPa | 0 mm | - | 0 W/m² | - |
| 1777685931 | 7.78° C | 44% | 1017.8 hPa | 0 mm | - | 0 W/m² | - |
* Rain latest hour (hover to see other rain measurements)
** Current wind speed in m/s (hover to see current wind gust speed)